Regional Weather Roundup
Issued by NWS Sioux Falls, SD

Home | Current Version | Previous Version | Text Only | Print | Product List | Glossary On
Versions: 1 2 3 4 5 6 7 8 9 10 11 12 13 14 15 16 17 18 19 20 21 22 23 24 25 26 27 28 29 30 31 32 33 34 35 36 37 38 39 40 41 42 43 44 45 46 47 48 49 50
000
ASUS43 KFSD 222010
RWRFSD

WEATHER ROUNDUP FOR SE SOUTH DAKOTA/SW MINNESOTA/NW IOWA
NATIONAL WEATHER SERVICE SIOUX FALLS SD
300 PM CDT FRI SEP 22 2017

NOTE: "FAIR" INDICATES FEW OR NO CLOUDS BELOW 12,000 FEET WITH NO
SIGNIFICANT WEATHER AND OR OBSTRUCTIONS TO VISIBILITY.


SDZ038>040-050-052>070-222100-
SOUTHEAST SOUTH DAKOTA

CITY           SKY/WX    TMP DP  RH WIND       PRES   REMARKS
BROOKINGS      SUNNY     88  70  55 S24G35    29.70F
CHAMBERLAIN    SUNNY     76  56  51 W15G23    29.73S
HURON          SUNNY     86  62  44 SW14G23   29.65S
MADISON        FAIR      88  70  55 S24G30    29.71S
MITCHELL       SUNNY     86  62  44 W17       29.67R
SIOUX FALLS    MOSUNNY   90  72  55 S24G35    29.71F HX  97
WINNER         FAIR      73  53  49 W16G23    29.75S
YANKTON        SUNNY     95  69  42 S23G30    29.68F HX 100
$$

MNZ071-072-080-081-089-090-097-098-222100-
SOUTHWEST MINNESOTA

CITY           SKY/WX    TMP DP  RH WIND       PRES   REMARKS
FAIRMONT       SUNNY     92  72  51 S21       29.80F HX  99
JACKSON        SUNNY     90  68  48 S21G28    29.81S
LUVERNE        SUNNY     90  64  43 S20G31    29.75R
MARSHALL       SUNNY     92  71  50 SW24G30   29.70S HX  98
MONTEVIDEO     SUNNY     93  70  46 SW12G21   29.70S HX  99
PIPESTONE      SUNNY     90  70  51 S17G28    29.74F HX  95
REDWOOD FALLS  LGT RAIN  92  68  45 S23G29    29.73F HX  96
TRACY          SUNNY     91  71  52 S21G26    29.74S HX  98
WINDOM         SUNNY     90  66  45 S18G35    29.77F
WORTHINGTON    SUNNY     90  70  51 S20G26    29.78S HX  95
$$

IAZ001>003-012>014-020>022-031-032-NEZ013-014-SDZ071-222100-
NORTHWEST IOWA

CITY           SKY/WX    TMP DP  RH WIND       PRES   REMARKS
CHEROKEE       SUNNY     91  71  52 S18G31    29.78F HX  97
DENISON        SUNNY     91  72  52 S21G29    29.84S HX  98
ESTHERVILLE    SUNNY     90  71  53 S23G33    29.80F HX  96
LE MARS        SUNNY     91  72  52 S20G29    29.75S HX  98
ORANGE CITY    SUNNY     91  72  52 S20G30    29.77S HX  98
SHELDON        SUNNY     90  70  51 S18G29    29.76S HX  95
SIOUX CITY     SUNNY     93  71  48 S24G31    29.76S HX 100
SPENCER        SUNNY     92  69  47 S24G32    29.79F HX  97
STORM LAKE     SUNNY     91  70  49 S22G31    29.82S HX  97
$$

ABBREVIATIONS USED IN REMARKS
   TC - TEMPERATURE IN CELSIUS
  WCI - WIND CHILL INDEX
   HX - HEAT INDEX
  VSB - VISIBILITY




USA.gov is the U.S. government's official web portal to all federal, state and local government web resources and services.